103P/Hartley 2 (2023)

Japanese version
Home page
Updated on June 29, 2024

---------------------------------------------------------------------

* Profile

* Pictures

* Orbital Elements

Epoch 2024 Mar. 31.0 TT = JDT 2460400.5
T 2023 Oct. 12.50692 TT                                 Rudenko
q   1.0641144            (2000.0)            P               Q
n   0.15218970     Peri.  181.30068     +0.75454673     -0.63876242
a   3.4743951      Node   219.74911     +0.60419906     +0.76568642
e   0.6937267      Incl.   13.61067     +0.25613028     +0.07554387
P   6.48
>From 9089 observations 2004 Sept. 20-2024 May 5, mean residual 0".7.
     Nongravitational parameters A1 = +0.11, A2 = +0.0236.

* Finding Charts

* Magnitudes Graph

        H = 16.8  G = 0.15                        [    ,-270]  (             - 2023 Jan. 15)
        m1 = 10.0 + 5 log d + 20.0 log r          [-270,   0]  (2023 Jan. 15 - 2023 Oct. 12)
        m1 = 10.0 + 5 log d + 15.0 log r(t - 10)  [   0, 165]  (2023 Oct. 12 - 2024 Mar. 25)
        m1 = 11.5 + 5 log d + 10.0 log r          [ 165,    ]  (2024 Mar. 25 -             )

---------------------------------------------------------------------

The orbital elements are published on M.P.E.C. 2024-L140.
The charts are made with StellaNavigator Ver.10 (AstroArts).
The magnitudes graphs are made with Comet for Windows.

---------------------------------------------------------------------

Copyright(C) Seiichi Yoshida (comet@aerith.net). All rights reserved.